Tracking 22879 objects as of 20-Apr-2021
HD Live streaming from Space Station
objects crossing your sky now

TVSAT 2

Track TVSAT 2 now!
TVSAT 2 is classified as:


NORAD ID: 20168
Int'l Code: 1989-062A
Perigee: 35,883.8 km
Apogee: 35,941.5 km
Inclination: 14.7 °
Period: 1,442.2 minutes
Semi major axis: 42283 km
RCS: 2.0976 m2 (large)
Launch date: August 8, 1989
Source: Germany (GER)
Launch site: FRENCH GUIANA (FRGUI)
aabbcc
Your satellite tracking list
Your tracking list is empty




NASA's NSSDC Master Catalog

Two Line Element Set (TLE):
1 20168U 89062A   21109.68439870  .00000087  00000-0  00000-0 0  9995
2 20168  14.6817  10.4459 0006823  65.5273 223.5572  0.99849219115684
Source of the keplerian elements: AFSPC